Terug naar catalogus

STARLINK-30359

ActiefCommunicatieVLEO
NORAD 57779·PAYLOAD·🇺🇸 United States

Gelanceerd Sep 4, 2023 vanaf Cape Canaveral Space Force Station

Loading…

Volgende Passages (komende 24 uur)

TLE

VersSource: CelesTrak SupGP

Epoch: Sep 14, 2026, 21:31 UTC

1 57779C 23134J   26257.89701389 -.00004504  00000+0 -16311-3 0  2571
2 57779  43.0029 194.6853 0001336 262.8225 160.2661 15.27585269    14

Volg STARLINK-30359 in realtime met AllMySat

Download on the App Store